TimeEST,TemperatureF,Dew PointF,Humidity,Sea Level PressureIn,VisibilityMPH,Wind Direction,Wind SpeedMPH,Gust SpeedMPH,PrecipitationIn,Events,Conditions,WindDirDegrees,DateUTC
4:15 AM,17.6,15.8,93,30.37,12.0,Variable,2.3,-,N/A,,Clear,0,2013-01-15 09:15:00
4:55 AM,19.4,15.8,86,30.42,12.0,WSW,2.3,-,N/A,,Clear,250,2013-01-15 09:55:00
5:55 AM,17.6,15.8,93,30.42,12.0,WSW,3.5,-,N/A,,Clear,250,2013-01-15 10:55:00
6:55 AM,17.6,14.0,86,30.44,12.0,West,3.5,-,N/A,,Clear,260,2013-01-15 11:55:00
7:55 AM,17.6,14.0,86,30.45,12.0,SW,3.5,-,N/A,,Partly Cloudy,230,2013-01-15 12:55:00
8:55 AM,21.2,17.6,86,30.46,10.0,SW,3.5,-,N/A,,Partly Cloudy,220,2013-01-15 13:55:00
9:55 AM,24.8,17.6,74,30.46,10.0,West,2.3,-,N/A,,Partly Cloudy,270,2013-01-15 14:55:00
10:55 AM,24.8,17.6,74,30.44,12.0,Variable,1.2,-,N/A,,Partly Cloudy,0,2013-01-15 15:55:00
11:55 AM,28.4,14.0,55,30.44,12.0,Variable,1.2,-,N/A,,Partly Cloudy,0,2013-01-15 16:55:00
12:55 PM,30.2,15.8,55,30.40,12.0,SW,3.5,-,N/A,,Scattered Clouds,230,2013-01-15 17:55:00
1:55 PM,28.4,17.6,64,30.36,12.0,ESE,3.5,-,N/A,,Mostly Cloudy,120,2013-01-15 18:55:00
2:55 PM,28.4,17.6,64,30.36,12.0,ESE,4.6,-,N/A,,Mostly Cloudy,120,2013-01-15 19:55:00
3:55 PM,28.4,17.6,64,30.35,12.0,South,5.8,-,N/A,,Mostly Cloudy,170,2013-01-15 20:55:00
4:55 PM,28.4,19.4,69,30.33,12.0,SSE,6.9,-,N/A,,Overcast,150,2013-01-15 21:55:00
5:55 PM,26.6,19.4,74,30.33,12.0,SSE,5.8,-,N/A,,Overcast,150,2013-01-15 22:55:00
6:55 PM,26.6,19.4,74,30.32,12.0,SSE,4.6,-,N/A,,Overcast,160,2013-01-15 23:55:00
7:55 PM,26.6,19.4,74,30.30,12.0,SSW,3.5,-,N/A,,Overcast,200,2013-01-16 00:55:00
8:55 PM,26.6,21.2,80,30.27,12.0,South,3.5,-,N/A,,Overcast,190,2013-01-16 01:55:00
9:55 PM,26.6,21.2,80,30.24,12.0,SSW,4.6,-,N/A,,Overcast,200,2013-01-16 02:55:00
10:55 PM,24.8,21.2,86,30.22,12.0,Calm,Calm,-,N/A,,Mostly Cloudy,0,2013-01-16 03:55:00